Terminal Aerodrome Forecast
Issued by NWS Portland, ME

Home | Current Version | Previous Version | Text Only | Print | Product List | Glossary On
Versions: 1 2 3 4 5 6 7 8 9 10 11 12 13 14 15 16 17 18 19 20
000
FTUS41 KGYX 010532
TAFPWM
TAF
KPWM 010532Z 0106/0206 25004KT P6SM FEW100
     FM011500 23009G16KT P6SM SCT050 BKN120
     FM020000 27004KT P6SM SCT060=

USA.gov is the U.S. government's official web portal to all federal, state and local government web resources and services.